This is the latest recevied weather packets stored in our database for station/object GBTWP-2. If no packets are shown the sender has not sent any weather packets the latest 10 day(s).
| Time | Temp. | Humidity | Pressure | Rain* | Wind** | Luminosity | Snow |
|---|---|---|---|---|---|---|---|
| 1788544919 | 23.33° C | 90% | 1017.5 hPa | 0 mm | - | 243 W/m² | - |
| 1788544626 | 23.33° C | 91% | 1017.4 hPa | 0 mm | - | 250 W/m² | - |
| 1788544325 | 22.78° C | 92% | 1017.6 hPa | 0 mm | - | 244 W/m² | - |
| 1788544019 | 23.33° C | 93% | 1017.6 hPa | 0 mm | - | 251 W/m² | - |
| 1788543720 | 22.78° C | 95% | 1017.6 hPa | 0 mm | - | 237 W/m² | - |
| 1788543419 | 22.78° C | 95% | 1017.7 hPa | 0 mm | - | 229 W/m² | - |
| 1788543120 | 22.78° C | 96% | 1017.9 hPa | 0 mm | - | 217 W/m² | - |
| 1788542817 | 22.78° C | 96% | 1017.7 hPa | 0 mm | - | 212 W/m² | - |
| 1788542519 | 22.78° C | 96% | 1017.6 hPa | 0 mm | - | 215 W/m² | - |
| 1788542220 | 22.78° C | 97% | 1017.8 hPa | 0 mm | - | 209 W/m² | - |
| 1788541919 | 22.22° C | 97% | 1017.8 hPa | 0 mm | - | 209 W/m² | - |
| 1788541619 | 22.22° C | 98% | 1017.9 hPa | 0 mm | - | 215 W/m² | - |
| 1788541343 | 22.22° C | 98% | 1017.5 hPa | 0 mm | - | 209 W/m² | - |
| 1788541019 | 22.22° C | 98% | 1017.6 hPa | 0 mm | - | 208 W/m² | - |
| 1788540719 | 22.22° C | 98% | 1017.7 hPa | 0 mm | - | 217 W/m² | - |
| 1788540419 | 22.22° C | 98% | 1017.5 hPa | 0 mm | - | 240 W/m² | - |
| 1788540122 | 22.22° C | 98% | 1017.5 hPa | 0 mm | - | 235 W/m² | - |
| 1788539821 | 22.22° C | 98% | 1017.6 hPa | 0 mm | - | 229 W/m² | - |
| 1788539520 | 22.22° C | 98% | 1017.9 hPa | 0 mm | - | 224 W/m² | - |
| 1788539220 | 22.22° C | 98% | 1018 hPa | 0 mm | - | 222 W/m² | - |
| 1788538921 | 21.67° C | 98% | 1018 hPa | 0 mm | - | 221 W/m² | - |
| 1788538619 | 21.67° C | 99% | 1018.1 hPa | 0 mm | - | 204 W/m² | - |
| 1788538319 | 21.67° C | 99% | 1018.1 hPa | 0 mm | - | 213 W/m² | - |
| 1788538018 | 21.67° C | 99% | 1018.3 hPa | 0 mm | - | 209 W/m² | - |
| 1788537718 | 21.67° C | 99% | 1018.1 hPa | 0 mm | - | 231 W/m² | - |
* Rain latest hour (hover to see other rain measurements)
** Current wind speed in m/s (hover to see current wind gust speed)